Tracking 18980 objects as of 21-Feb-2018
HD Live streaming from Space Station
objects crossing your sky now

OPS 6392 (FLTSATCOM 2)

Track OPS 6392 (FLTSATCOM 2) now!
OPS 6392 (FLTSATCOM 2) is classified as:


NORAD ID: 11353
Int'l Code: 1979-038A
Perigee: 36,197.2 km
Apogee: 36,373.9 km
Inclination: 13.7 °
Period: 1,461.3 minutes
Semi major axis: 42656 km
RCS: 5.8553 m2 (large)
Launch date: May 4, 1979
Source: United States (US)
Launch site: AIR FORCE EASTERN TEST RANGE (AFETR)
aabbcc
Your satellite tracking list
Your tracking list is empty




NASA's NSSDC Master Catalog

Two Line Element Set (TLE):
1 11353U 79038A   18052.28822185 -.00000034  00000-0  00000+0 0  9999
2 11353  13.7380 330.9362 0020714 355.6985 200.5576  0.98542556140440
Source of the keplerian elements: AFSPC